Location: Asheville, NC
(35.6000°N, 82.5500°W)
Time: 02:22:01
(UTC-05:00)

Vanguard 1 - All Passes

Search period start: 16 December 2017 00:00
Search period end: 26 December 2017 00:00
Orbit: 650 x 3834 km, 34.2° (Epoch: 15 December)

Date Brightness Start Highest point End Pass type
(mag) Time Alt. Az. Time Alt. Az. Time Alt. Az.
16 Dec - 04:21:33 10° SSE 04:30:28 14° SE 04:39:30 10° ESE visible
16 Dec - 06:33:51 10° SSW 06:54:36 43° SE 07:12:27 10° E visible
16 Dec - 08:56:59 10° WSW 09:20:20 72° SSE 09:35:45 10° E daylight
16 Dec - 11:25:07 10° W 11:45:41 86° S 11:56:48 10° E daylight
16 Dec - 13:53:54 10° W 14:08:29 61° SSW 14:16:13 10° SE daylight
16 Dec - 16:22:39 10° W 16:27:45 16° SW 16:31:39 10° SSW daylight
17 Dec - 04:37:30 10° S 04:51:21 20° SE 05:05:25 10° E visible
17 Dec - 06:53:59 10° SW 07:15:50 51° SSE 07:34:10 10° E visible
17 Dec - 09:18:27 10° WSW 09:41:54 79° SSE 09:56:56 10° E daylight
17 Dec - 11:47:07 10° W 12:07:06 84° S 12:17:48 10° ESE daylight
17 Dec - 14:15:46 10° WNW 14:29:18 49° SSW 14:36:43 10° SE daylight
18 Dec - 04:55:36 10° S 05:12:13 28° SE 05:29:04 10° E visible
18 Dec - 07:14:31 10° SW 07:37:10 59° SSE 07:55:40 10° ENE daylight
18 Dec - 09:40:08 10° WSW 10:03:30 83° S 10:18:05 10° E daylight
18 Dec - 12:09:06 10° W 12:28:28 79° SSW 12:38:45 10° ESE daylight
18 Dec - 14:37:45 10° W 14:49:56 38° SW 14:57:00 10° SSE daylight
19 Dec - 05:14:40 10° SSW 05:33:07 36° SE 05:51:45 10° E visible
19 Dec - 07:35:23 10° SW 07:58:37 67° SSE 08:17:03 10° ENE daylight
19 Dec - 10:01:58 10° W 10:25:08 86° S 10:39:14 10° E daylight
19 Dec - 12:31:03 10° W 12:49:42 72° SSW 12:59:36 10° ESE daylight
19 Dec - 14:59:57 10° W 15:10:22 28° SW 15:16:55 10° SSE daylight
20 Dec - 03:22:43 10° SSE 03:30:50 13° SE 03:39:29 10° ESE visible
20 Dec - 05:34:21 10° SSW 05:54:07 44° SE 06:13:54 10° E visible
20 Dec - 07:56:31 10° WSW 08:20:10 74° SSE 08:38:23 10° E daylight
20 Dec - 10:23:53 10° W 10:46:46 86° S 11:00:21 10° E daylight
20 Dec - 12:52:59 10° WNW 13:10:46 63° SSW 13:20:19 10° SE daylight
20 Dec - 15:22:39 10° W 15:30:39 20° SW 15:36:15 10° S daylight
21 Dec - 03:38:43 10° SSE 03:51:27 20° SE 04:05:36 10° E visible
21 Dec - 05:54:30 10° SW 06:15:13 52° SE 06:35:42 10° ENE visible
21 Dec - 08:17:55 10° WSW 08:41:49 80° SSE 08:59:40 10° E daylight
21 Dec - 10:45:51 10° W 11:08:20 84° S 11:21:26 10° ESE daylight
21 Dec - 13:14:56 10° WNW 13:31:39 53° SSW 13:40:50 10° SE daylight
21 Dec - 15:46:42 10° WSW 15:50:50 13° SW 15:54:15 10° SSW daylight
22 Dec - 03:56:54 10° S 04:12:04 28° SE 04:29:24 10° E visible
22 Dec - 06:15:00 10° SW 06:36:29 61° SSE 06:57:20 10° ENE visible
22 Dec - 08:39:30 10° WSW 09:03:32 84° S 09:20:56 10° E daylight
22 Dec - 11:07:49 10° W 11:29:50 80° SSW 11:42:27 10° ESE daylight
22 Dec - 13:36:59 10° WNW 13:52:19 42° SW 14:01:07 10° SSE daylight
23 Dec - 04:16:01 10° SSW 04:32:46 36° SE 04:52:12 10° E visible
23 Dec - 06:35:47 10° SW 06:57:54 68° SSE 07:18:50 10° ENE visible
23 Dec - 09:01:13 10° W 09:25:18 86° S 09:42:12 10° E daylight
23 Dec - 11:29:46 10° W 11:51:10 73° SSW 12:03:21 10° ESE daylight
23 Dec - 13:59:15 10° W 14:12:48 33° SW 14:21:05 10° SSE daylight
24 Dec - 02:25:14 10° SE 02:31:23 12° ESE 02:38:08 10° ESE visible
24 Dec - 04:35:43 10° SSW 04:53:35 44° SE 05:14:28 10° ENE visible
24 Dec - 06:56:51 10° WSW 07:19:27 75° SSE 07:40:17 10° E visible
24 Dec - 09:23:02 10° W 09:47:03 86° S 10:03:25 10° E daylight
24 Dec - 11:51:42 10° WNW 12:12:21 65° SSW 12:24:06 10° SE daylight
24 Dec - 14:21:56 10° W 14:33:05 24° SW 14:40:33 10° S daylight
25 Dec - 02:40:52 10° SSE 02:51:46 19° SE 03:04:52 10° E visible
25 Dec - 04:55:50 10° SW 05:14:33 53° SE 05:36:25 10° ENE visible
25 Dec - 07:18:08 10° WSW 07:41:09 81° SSE 08:01:43 10° E daylight
25 Dec - 09:44:54 10° W 10:08:47 84° S 10:24:35 10° ESE daylight
25 Dec - 12:13:41 10° WNW 12:33:19 55° SSW 12:44:39 10° SE daylight
25 Dec - 14:45:33 10° W 14:53:16 16° SW 14:59:06 10° SSW daylight
